Dewpoint
-5 -5 -1 1 5 6 6 5 5 6 6 6 6 6 6 6 6 6 6 6 6 6 6 6 6 6 5 3 -0 0 5 9
4 4 2 2 4 5 5 5 5 5 6 6 6 6 7 7 8 8 8 8 8 8 7 7 7 7 7 7 7 4 -1 0
6 6 6 6 6 6 6 6 6 6 6 7 7 8 9 10 10 11 11 11 11 11 11 10 10 10 9 9 8 8 8 6
5 7 6 8 10 10 9 10 10 10 11 11 11 10 10 9 9 9 10 10 9 9 11 11 12 12 13 12 11 10 9 8
7 6 7 9 9 10 10 10 10 9 8 8 9 9 8 7 6 8 10 9 9 8 9 10 10 10 11 10 11 11 11 10
5 6 5 6 5 6 7 10 8 8 7 8 10 12 11 10 9 6 9 10 11 11 10 10 10 11 10 10 10 9 8 9
5 6 10 10 9 10 9 9 9 10 10 11 11 11 10 9 7 4 2 -2 -9 -7 2 6 9 10 11 11 12 11 11 10
7 9 14 13 13 12 12 12 12 11 10 9 5 -1 -7 -9 -4 -1 1 1 1 0 -2 -10 -21 -15 -9 -5 5 8 9 10
8 11 12 12 12 11 10 9 7 5 2 -5 -9 -3 2 2 0 -0 -1 -1 0 2 1 -1 -3 -7 -10 -15 -20 -22 -22 -18
10 10 10 10 9 8 7 5 2 -4 -9 -5 1 3 1 -1 -1 -2 -3 -4 -5 -2 0 1 2 2 2 1 0 -1 -3 -3
8 8 7 6 6 5 2 -2 -8 -11 -6 1 3 -1 -1 -2 -2 -3 -4 -8 -13 -14 -10 -6 -4 -3 -2 -0 1 1 1 0
4 3 2 1 -1 -2 -4 -6 -6 -3 3 3 -1 -1 -1 -2 -2 -4 -6 -10 -15 -18 -18 -17 -14 -14 -15 -15 -9 -2 -2 -2
1 0 -1 -2 -2 -1 -1 -1 -3 1 3 0 -1 -1 -2 -2 -2 -4 -7 -7 -7 -8 -9 -12 -16 -15 -15 -15 -11 -8 -2 2
-1 -1 -1 -2 -2 -2 -2 -2 -4 3 3 -0 -0 -2 -3 -2 -1 -1 -7 -8 -8 -8 -11 -12 -13 -10 -7 -10 -4 -6 -4 -2
1 0 0 -0 -0 -2 -4 -5 -0 3 2 1 -1 -3 -3 -1 -1 0 0 -5 -7 -8 -9 -9 -10 -10 -6 -1 0 1 -3 -5
1 1 1 0 -0 -2 -3 -2 2 2 1 -0 -1 -1 -1 1 0 1 1 1 -1 -5 -6 -6 -6 -6 -6 -4 -1 0 1 1
2 1 1 1 0 -1 -1 2 2 1 1 2 1 1 2 1 1 1 0 1 -1 -1 -2 -2 -2 -2 -3 -2 -2 -1 -1 1
2 1 1 2 1 -0 1 1 2 2 1 1 1 2 1 1 1 1 1 1 -1 -0 -0 -0 -0 0 -0 -1 -1 -0 -1 -0
2 2 2 2 2 1 1 3 3 3 3 2 1 1 1 1 1 -1 -2 -1 -2 -2 -2 -2 -1 -0 -1 -1 -1 -1 -1 -0
2 1 2 2 2 2 3 4 4 4 2 1 1 0 -0 -0 -1 -1 -2 -4 -3 -4 -4 -4 -4 -4 -4 -4 -3 -3 -1 -1
Wind_Speed
11 8 6 6 5 6 6 7 6 5 4 4 4 4 4 5 6 7 8 10 9 10 10 11 11 11 10 9 10 12 14 14
11 7 5 3 3 4 5 5 6 7 7 7 7 8 8 9 10 10 11 13 13 13 14 14 15 15 14 13 13 13 15 16
5 9 10 6 5 7 7 6 8 9 10 10 11 11 12 14 16 17 19 20 21 19 19 18 19 18 17 17 17 16 17 18
17 10 6 3 6 8 8 9 12 13 13 14 13 11 10 12 15 17 19 22 23 23 21 22 22 20 21 20 20 20 21 21
9 12 6 4 4 4 2 8 11 9 9 11 13 11 12 12 15 19 21 20 24 21 22 21 26 22 19 18 20 22 19 21
6 12 10 5 8 15 13 12 22 14 15 14 12 10 9 12 15 23 23 19 19 21 21 22 28 26 23 27 25 25 22 20
11 14 10 9 12 16 17 16 17 13 12 7 5 7 7 7 6 7 8 12 16 17 15 19 21 24 24 27 23 22 21 22
12 9 8 10 9 11 11 8 4 3 6 6 7 9 10 13 14 15 16 14 15 16 16 17 19 20 19 20 22 22 22 21
4 4 4 4 3 5 6 8 10 10 10 10 10 10 13 15 16 16 17 17 17 17 17 17 16 15 16 15 17 17 18 20
8 7 6 6 7 8 9 9 8 9 10 10 11 13 14 15 16 18 20 20 20 20 20 20 21 22 23 23 21 20 17 16
7 8 7 8 8 8 9 10 9 9 9 10 11 13 14 16 18 20 21 21 20 20 21 22 23 23 23 23 22 23 22 20
7 6 7 8 7 7 7 7 7 7 9 10 11 13 16 19 21 22 22 21 21 21 21 20 21 23 22 21 19 18 15 12
5 6 6 5 5 6 7 8 7 6 9 10 11 15 19 22 23 22 21 22 24 24 23 23 24 26 27 24 16 12 7 5
6 6 7 8 8 9 8 7 4 7 9 8 10 15 19 23 25 24 22 22 22 23 24 24 24 25 26 24 18 22 7 11
9 9 9 8 9 7 6 3 3 8 6 7 12 15 19 22 23 25 24 24 25 24 23 24 24 24 22 15 11 9 35 20
6 6 8 7 7 6 5 4 6 7 8 10 13 18 21 22 23 23 23 25 24 24 22 22 23 23 22 20 16 19 23 24
4 4 6 8 8 5 4 4 4 5 8 11 14 18 18 20 19 18 21 24 22 20 21 21 22 23 23 24 24 23 23 21
5 2 5 7 6 3 2 2 2 7 12 15 18 19 19 20 18 20 21 24 24 25 25 25 23 21 23 24 24 26 28 31
6 2 1 2 4 3 2 3 6 11 14 15 18 18 21 19 15 16 21 23 23 24 25 25 26 28 26 26 28 28 30 30
8 8 4 4 4 4 5 5 5 9 10 15 17 18 18 18 20 22 24 25 26 27 27 27 28 28 30 31 32 34 32 32
Wind_Direction
142 132 137 164 181 187 187 191 196 204 212 219 237 243 252 268 283 292 298 295 291 291 287 284 279 273 269 258 252 248 243 239
142 149 186 166 194 209 218 220 237 239 244 253 258 264 271 269 270 273 266 271 272 269 269 268 269 267 262 259 255 252 254 249
154 187 174 209 248 261 266 270 279 289 288 286 286 291 299 306 306 299 296 290 285 272 269 266 266 268 264 259 255 253 253 256
275 222 242 232 259 276 277 318 321 313 307 304 303 305 308 311 313 309 305 309 309 302 290 285 277 281 275 265 258 252 250 253
220 210 157 128 268 292 352 333 300 305 319 312 302 308 309 315 322 322 314 311 309 311 311 301 292 287 275 281 282 267 259 260
242 212 208 175 234 274 282 245 257 260 258 260 260 281 304 318 328 308 313 316 311 306 308 296 293 284 285 291 269 264 266 262
191 183 196 229 232 239 241 240 254 249 256 267 308 1 11 15 2 355 326 336 342 340 330 307 298 291 288 277 281 277 270 268
172 198 223 251 244 255 267 282 298 19 38 36 41 39 37 39 35 21 12 3 347 340 340 333 322 309 297 289 285 285 284 283
153 252 258 255 319 28 75 69 69 63 62 69 68 51 34 34 30 22 14 3 350 335 321 309 302 302 309 312 309 301 296 285
91 93 92 86 84 78 66 63 58 68 69 59 46 39 33 32 24 18 12 2 352 341 329 315 306 303 298 295 293 294 301 303
89 85 72 61 57 51 47 55 61 62 59 51 45 43 34 24 17 11 6 1 355 348 341 333 328 322 316 308 299 289 287 289
62 62 54 43 35 32 42 48 51 68 56 48 50 38 25 16 10 6 4 2 358 353 347 344 342 336 335 335 327 295 284 275
63 56 52 49 26 18 19 24 40 51 37 44 39 24 18 15 12 9 7 4 359 353 349 345 346 345 339 334 351 352 293 300
61 58 47 34 14 359 350 357 33 23 23 25 14 9 8 6 7 6 2 1 357 352 351 349 348 356 353 347 341 336 300 310
80 72 63 59 43 13 348 354 19 7 7 357 356 356 354 356 359 357 353 351 351 351 348 348 347 349 356 360 342 317 320 323
103 89 72 63 48 37 13 347 345 355 356 348 342 345 344 347 353 353 349 345 341 342 343 343 341 340 343 343 332 322 322 317
147 107 76 55 46 43 24 355 26 15 344 337 337 346 345 343 349 343 332 331 333 334 333 336 339 336 334 330 327 325 320 310
179 119 66 50 39 61 34 65 26 318 330 330 338 337 338 333 333 330 327 324 325 326 325 323 322 322 325 322 320 319 315 313
193 154 96 90 95 118 139 235 303 328 324 331 329 334 332 328 321 320 319 321 320 319 318 318 315 308 314 316 311 306 303 303
202 195 197 182 187 221 245 280 299 309 321 331 329 330 328 321 315 313 311 307 308 309 308 308 304 304 300 297 296 296 298 294
Height
1547 1551 1554 1557 1559 1560 1559 1559 1559 1561 1561 1561 1561 1560 1559 1560 1561 1561 1562 1561 1559 1559 1558 1559 1560 1560 1559 1558 1556 1555 1554 1554
1548 1550 1552 1557 1559 1560 1561 1560 1562 1562 1561 1562 1561 1561 1561 1560 1559 1560 1558 1559 1558 1556 1555 1555 1557 1557 1556 1555 1554 1553 1552 1552
1546 1548 1546 1554 1558 1560 1562 1562 1564 1565 1564 1563 1562 1561 1561 1561 1561 1561 1558 1559 1559 1555 1553 1552 1552 1554 1553 1552 1550 1550 1549 1548
1546 1546 1548 1551 1555 1559 1563 1565 1566 1565 1563 1563 1563 1561 1559 1558 1558 1559 1558 1558 1558 1556 1553 1552 1549 1547 1548 1548 1546 1545 1544 1544
1544 1544 1547 1549 1553 1559 1561 1563 1565 1561 1560 1563 1564 1561 1558 1553 1551 1553 1554 1553 1554 1553 1551 1549 1550 1547 1542 1543 1542 1539 1539 1539
1543 1544 1547 1548 1550 1553 1556 1561 1563 1558 1556 1558 1560 1559 1556 1552 1546 1541 1550 1549 1551 1548 1545 1547 1548 1546 1542 1542 1541 1538 1534 1534
1543 1546 1548 1551 1553 1555 1558 1558 1558 1555 1554 1555 1557 1556 1553 1549 1544 1544 1548 1548 1549 1546 1542 1543 1543 1541 1540 1537 1537 1533 1531 1530
1545 1550 1552 1553 1555 1555 1555 1554 1553 1553 1554 1554 1556 1556 1554 1551 1549 1550 1549 1547 1547 1545 1542 1542 1542 1541 1538 1535 1532 1528 1527 1527
1549 1552 1553 1554 1556 1555 1556 1554 1555 1554 1554 1555 1557 1557 1556 1553 1552 1551 1549 1547 1545 1543 1542 1541 1539 1538 1535 1532 1529 1526 1524 1522
1552 1554 1555 1557 1557 1557 1557 1557 1556 1556 1556 1557 1558 1557 1556 1555 1553 1551 1548 1546 1544 1541 1539 1538 1535 1533 1531 1529 1527 1524 1522 1520
1557 1557 1557 1558 1558 1558 1558 1558 1557 1557 1558 1558 1558 1558 1557 1555 1552 1550 1548 1545 1543 1541 1538 1534 1531 1529 1526 1524 1521 1520 1518 1517
1560 1560 1560 1560 1560 1560 1560 1561 1559 1560 1560 1559 1559 1558 1557 1555 1553 1550 1548 1545 1543 1540 1537 1534 1530 1526 1523 1521 1517 1515 1514 1512
1564 1562 1562 1563 1562 1562 1562 1561 1561 1561 1561 1561 1560 1559 1557 1554 1552 1550 1548 1545 1542 1540 1537 1534 1530 1526 1521 1518 1517 1515 1514 1512
1566 1564 1563 1563 1562 1562 1562 1562 1562 1562 1562 1561 1561 1559 1556 1554 1551 1549 1547 1545 1543 1540 1536 1533 1530 1527 1523 1518 1513 1512 1512 1511
1567 1566 1565 1565 1565 1564 1564 1563 1563 1563 1563 1562 1560 1558 1556 1554 1552 1549 1547 1545 1542 1540 1537 1534 1531 1529 1527 1525 1521 1516 1510 1506
1565 1565 1565 1565 1565 1565 1565 1565 1564 1564 1563 1562 1560 1558 1556 1554 1552 1549 1547 1545 1542 1539 1537 1534 1531 1529 1527 1526 1525 1522 1515 1502
1565 1565 1565 1565 1565 1565 1565 1565 1565 1564 1563 1561 1560 1558 1555 1553 1551 1549 1546 1543 1540 1537 1534 1533 1530 1528 1526 1524 1521 1518 1516 1512
1564 1566 1566 1566 1566 1566 1566 1565 1564 1563 1562 1560 1558 1556 1554 1551 1549 1546 1544 1541 1538 1535 1533 1531 1528 1526 1524 1522 1519 1516 1512 1508
1564 1566 1566 1566 1566 1565 1565 1564 1563 1562 1560 1558 1556 1553 1550 1548 1545 1542 1540 1537 1534 1532 1529 1527 1524 1521 1519 1516 1515 1512 1509 1505
1564 1565 1564 1564 1563 1564 1563 1563 1561 1560 1558 1555 1553 1551 1548 1545 1542 1539 1536 1532 1529 1526 1524 1521 1518 1515 1513 1511 1507 1505 1503 1499